{"data":{"norad_id":57177,"intl_designator":"2023-091M","name":"ZORKIY-2M 1","alt_names":[],"object_type":"PAYLOAD","status":"ACTIVE","operator":null,"country":"CIS","launch_date":"2023-06-27","launch_site_code":"VOSTO","launch_vehicle":null,"mission":null,"orbit_class":"UNKNOWN","rcs_meters":null,"size_class":null,"mass_kg":null,"dimensions":null,"purposes":[],"wikipedia_slug":null,"has_3d_model":false,"image_url":null,"decayed_at":null,"tle_current":{"epoch":"2026-09-21T21:24:06.222816Z","epoch_age_seconds":82699,"freshness":"FRESH","line1":"1 57177U 23091M   26264.89173869  .00004231  00000+0  18826-3 0  9990","line2":"2 57177  97.4993 323.5683 0014109 134.4395 225.7998 15.21944808178701","mean_motion":15.21944808,"eccentricity":0.0014109,"inclination_deg":97.4993,"raan_deg":323.5683,"arg_perigee_deg":134.4395,"mean_anomaly_deg":225.7998,"bstar":0.00018826,"rev_number":17870,"period_min":94.615783202567,"perigee_km":490.27060306783,"apogee_km":509.67925931527,"semimajor_km":6878.1119311916,"source":"CELESTRAK","updated_at":"2026-09-22T09:00:26.075307Z"}}}